This is the latest recevied weather packets stored in our database for station/object K0WOI. If no packets are shown the sender has not sent any weather packets the latest 10 day(s).
| Time | Temp. | Humidity | Pressure | Rain* | Wind** | Luminosity | Snow |
|---|---|---|---|---|---|---|---|
| 1777773544 | 13.33° C | 42% | 1014.3 hPa | 0 mm | - | 0 W/m² | - |
| 1777773241 | 13.33° C | 41% | 1014.1 hPa | 0 mm | - | 0 W/m² | - |
| 1777772936 | 13.33° C | 41% | 1014.2 hPa | 0 mm | - | 0 W/m² | - |
| 1777772634 | 13.89° C | 40% | 1014.3 hPa | 0 mm | - | 0 W/m² | - |
| 1777772332 | 13.89° C | 39% | 1014.3 hPa | 0 mm | - | 0 W/m² | - |
| 1777772028 | 13.89° C | 39% | 1014.2 hPa | 0 mm | - | 0 W/m² | - |
| 1777771726 | 13.89° C | 39% | 1014.3 hPa | 0 mm | - | 0 W/m² | - |
| 1777771423 | 14.44° C | 39% | 1014.3 hPa | 0 mm | - | 0 W/m² | - |
| 1777771120 | 15° C | 38% | 1014.4 hPa | 0 mm | - | 0 W/m² | - |
| 1777770817 | 15° C | 36% | 1014.7 hPa | 0 mm | - | 1 W/m² | - |
| 1777770513 | 15.56° C | 34% | 1014.3 hPa | 0 mm | - | 3 W/m² | - |
| 1777770211 | 16.11° C | 33% | 1014.4 hPa | 0 mm | - | 5 W/m² | - |
| 1777769907 | 16.11° C | 32% | 1014.3 hPa | 0 mm | - | 8 W/m² | - |
| 1777769605 | 16.11° C | 32% | 1014.4 hPa | 0 mm | - | 11 W/m² | - |
| 1777769301 | 16.67° C | 31% | 1014.4 hPa | 0 mm | - | 13 W/m² | - |
| 1777768999 | 16.67° C | 31% | 1014.5 hPa | 0 mm | - | 17 W/m² | - |
| 1777768696 | 16.67° C | 30% | 1014.3 hPa | 0 mm | - | 20 W/m² | - |
| 1777768393 | 16.67° C | 30% | 1014.5 hPa | 0 mm | - | 23 W/m² | - |
| 1777768090 | 16.67° C | 29% | 1014.7 hPa | 0 mm | - | 25 W/m² | - |
| 1777767787 | 16.67° C | 29% | 1014.7 hPa | 0 mm | - | 28 W/m² | - |
| 1777767483 | 17.22° C | 30% | 1014.7 hPa | 0 mm | - | 30 W/m² | - |
| 1777767179 | 17.22° C | 31% | 1014.8 hPa | 0 mm | - | 32 W/m² | - |
| 1777766877 | 17.22° C | 30% | 1014.8 hPa | 0 mm | - | 34 W/m² | - |
| 1777766574 | 17.22° C | 30% | 1014.8 hPa | 0 mm | - | 41 W/m² | - |
| 1777766271 | 17.78° C | 28% | 1014.8 hPa | 0 mm | - | 39 W/m² | - |
* Rain latest hour (hover to see other rain measurements)
** Current wind speed in m/s (hover to see current wind gust speed)